RYR851V LEPA-LEBL

Flight info

Callsign RYR851V
Flight time 0h 29m
Altitude 18000
Route ESPOR L2 NEPAL
Aircraft B738/M-SDE2E3FGHIRWXY/LB1

Departure

Time 2026-04-30 20:06
Airport Palma de Mallorca Airport (LEPA)

Arrival

Time 2026-04-30 20:35
Airport Josep Tarradellas Barcelona-El Prat Airport (LEBL)
Time Latitude Longitude Altitude Speed Heading
2026-04-30 19:26 39.54837 2.73579 32 ft 0 kts 57°
2026-04-30 19:52 39.54830 2.73565 31 ft 2 kts 57°
2026-04-30 19:52 39.54822 2.73549 31 ft 2 kts 57°
2026-04-30 19:52 39.54814 2.73533 31 ft 2 kts 57°
2026-04-30 19:52 39.54807 2.73516 31 ft 2 kts 90°
2026-04-30 19:53 39.54812 2.73497 31 ft 2 kts 131°
2026-04-30 19:53 39.54818 2.73490 31 ft 1 kts 154°
2026-04-30 19:53 39.54822 2.73488 31 ft 0 kts 149°
2026-04-30 19:55 39.54817 2.73492 31 ft 2 kts 149°
2026-04-30 19:55 39.54792 2.73511 31 ft 5 kts 149°
2026-04-30 19:56 39.54747 2.73547 31 ft 9 kts 148°
2026-04-30 19:56 39.54683 2.73598 31 ft 12 kts 151°
2026-04-30 19:56 39.54623 2.73627 31 ft 9 kts 162°
2026-04-30 19:56 39.54554 2.73623 31 ft 11 kts 216°
2026-04-30 19:57 39.54501 2.73526 31 ft 14 kts 238°
2026-04-30 19:57 39.54441 2.73399 31 ft 18 kts 239°
2026-04-30 19:57 39.54380 2.73273 31 ft 6 kts 238°
2026-04-30 19:57 39.54352 2.73213 31 ft 9 kts 238°
2026-04-30 19:58 39.54313 2.73134 31 ft 8 kts 238°
2026-04-30 19:58 39.54278 2.73062 31 ft 7 kts 239°
2026-04-30 19:58 39.54261 2.73026 31 ft 5 kts 239°
2026-04-30 19:58 39.54250 2.73003 31 ft 2 kts 237°
2026-04-30 19:59 39.54246 2.72995 31 ft 0 kts 237°
2026-04-30 19:59 39.54242 2.72994 31 ft 0 kts 173°
2026-04-30 20:00 39.54236 2.72996 31 ft 0 kts 165°
2026-04-30 20:01 39.54232 2.72997 31 ft 0 kts 165°
2026-04-30 20:02 39.54229 2.72998 31 ft 0 kts 165°
2026-04-30 20:04 39.54227 2.72999 31 ft 1 kts 165°
2026-04-30 20:04 39.54208 2.73007 31 ft 4 kts 158°
2026-04-30 20:04 39.54174 2.73037 31 ft 7 kts 132°
2026-04-30 20:05 39.54149 2.73220 31 ft 13 kts 66°
2026-04-30 20:05 39.54217 2.73367 31 ft 32 kts 59°
2026-04-30 20:05 39.54920 2.74856 33 ft 153 kts 59°
2026-04-30 20:06 39.55500 2.76102 387 ft 166 kts 59°
2026-04-30 20:06 39.56083 2.77374 1034 ft 166 kts 59°
2026-04-30 20:06 39.56676 2.78646 1593 ft 170 kts 56°
2026-04-30 20:06 39.57365 2.80023 1800 ft 196 kts 57°
2026-04-30 20:07 39.58124 2.81602 2227 ft 214 kts 58°
2026-04-30 20:07 39.58897 2.83226 3058 ft 214 kts 58°
2026-04-30 20:07 39.60456 2.86493 4535 ft 220 kts 57°
2026-04-30 20:08 39.61256 2.88171 5334 ft 220 kts 57°
2026-04-30 20:08 39.62064 2.89871 6004 ft 226 kts 57°
2026-04-30 20:08 39.62947 2.91545 6734 ft 227 kts 44°
2026-04-30 20:08 39.64284 2.92527 7406 ft 229 kts
2026-04-30 20:09 39.65816 2.92217 8122 ft 229 kts 329°
2026-04-30 20:09 39.66862 2.90696 8809 ft 234 kts 291°
2026-04-30 20:09 39.67340 2.86530 10261 ft 240 kts 284°
2026-04-30 20:10 39.68006 2.82317 11795 ft 242 kts 280°
2026-04-30 20:10 39.68262 2.80184 12541 ft 244 kts 279°
2026-04-30 20:10 39.68456 2.78013 13265 ft 247 kts 274°
2026-04-30 20:11 39.68652 2.73532 14514 ft 260 kts 289°
2026-04-30 20:11 39.69547 2.71349 14727 ft 284 kts 303°
2026-04-30 20:11 39.70554 2.69063 15004 ft 305 kts 296°
2026-04-30 20:12 39.72391 2.63663 15277 ft 352 kts 294°
2026-04-30 20:12 39.73411 2.60668 15662 ft 365 kts 294°
2026-04-30 20:12 39.74425 2.57661 16281 ft 370 kts 294°
2026-04-30 20:13 39.75468 2.54545 16901 ft 375 kts 294°
2026-04-30 20:13 39.76504 2.51445 17554 ft 378 kts 294°
2026-04-30 20:13 39.77544 2.48328 18060 ft 380 kts 294°
2026-04-30 20:13 39.78595 2.45174 18082 ft 378 kts 294°
2026-04-30 20:14 39.79637 2.42041 18100 ft 375 kts 294°
2026-04-30 20:14 39.80660 2.38960 18103 ft 375 kts 294°
2026-04-30 20:14 39.81798 2.35896 18097 ft 375 kts 302°
2026-04-30 20:14 39.83392 2.33258 18101 ft 376 kts 315°
2026-04-30 20:15 39.85500 2.31252 18103 ft 377 kts 331°
2026-04-30 20:15 39.87906 2.29910 18107 ft 379 kts 338°
2026-04-30 20:15 39.90391 2.28704 18101 ft 379 kts 338°
2026-04-30 20:15 39.92825 2.27469 18100 ft 379 kts 337°
2026-04-30 20:16 39.95280 2.26216 18099 ft 379 kts 337°
2026-04-30 20:16 39.97731 2.24979 18101 ft 379 kts 337°
2026-04-30 20:16 40.00164 2.23756 18101 ft 379 kts 337°
2026-04-30 20:16 40.02632 2.22513 18101 ft 378 kts 337°
2026-04-30 20:17 40.05071 2.21285 18101 ft 379 kts 337°
2026-04-30 20:17 40.07534 2.20045 18101 ft 378 kts 338°
2026-04-30 20:17 40.09976 2.18815 18101 ft 378 kts 337°
2026-04-30 20:17 40.12426 2.17580 18101 ft 378 kts 337°
2026-04-30 20:18 40.14931 2.16316 18101 ft 378 kts 337°
2026-04-30 20:18 40.17344 2.15098 18101 ft 378 kts 337°
2026-04-30 20:18 40.19838 2.13838 18101 ft 378 kts 338°
2026-04-30 20:18 40.22317 2.12585 18101 ft 378 kts 337°
2026-04-30 20:19 40.24760 2.11350 18101 ft 378 kts 337°
2026-04-30 20:19 40.27197 2.10116 18101 ft 378 kts 338°
2026-04-30 20:19 40.29654 2.08922 18100 ft 378 kts 340°
2026-04-30 20:19 40.32172 2.07894 18101 ft 379 kts 342°
2026-04-30 20:20 40.34688 2.06893 18101 ft 379 kts 341°
2026-04-30 20:20 40.37251 2.05835 18102 ft 390 kts 341°
2026-04-30 20:20 40.39842 2.04758 18102 ft 401 kts 341°
2026-04-30 20:20 40.42547 2.03637 18100 ft 410 kts 341°
2026-04-30 20:21 40.45244 2.02519 18096 ft 407 kts 341°
2026-04-30 20:21 40.47912 2.01410 18095 ft 400 kts 341°
2026-04-30 20:21 40.50526 2.00323 18011 ft 387 kts 341°
2026-04-30 20:21 40.53057 1.99268 17138 ft 388 kts 341°
2026-04-30 20:22 40.55607 1.98203 16183 ft 390 kts 341°
2026-04-30 20:22 40.58202 1.97118 15295 ft 389 kts 341°
2026-04-30 20:22 40.60716 1.96068 14693 ft 380 kts 341°
2026-04-30 20:22 40.63203 1.95028 14038 ft 374 kts 341°
2026-04-30 20:23 40.65675 1.93994 13527 ft 364 kts 341°
2026-04-30 20:23 40.68028 1.93008 13227 ft 350 kts 341°
2026-04-30 20:23 40.70314 1.92260 12973 ft 337 kts 349°
2026-04-30 20:23 40.72620 1.91819 12370 ft 336 kts 351°
2026-04-30 20:24 40.74926 1.91377 11835 ft 331 kts 350°
2026-04-30 20:24 40.77164 1.90924 11318 ft 327 kts 350°
2026-04-30 20:24 40.79387 1.90480 10814 ft 323 kts 350°
2026-04-30 20:24 40.81577 1.90045 10496 ft 313 kts 350°
2026-04-30 20:25 40.85686 1.89227 10042 ft 291 kts 350°
2026-04-30 20:25 40.87684 1.88828 9643 ft 287 kts 351°
2026-04-30 20:26 40.91576 1.88052 8885 ft 280 kts 351°
2026-04-30 20:26 40.95345 1.87300 8155 ft 272 kts 351°
2026-04-30 20:26 40.97203 1.86929 7792 ft 269 kts 351°
2026-04-30 20:27 41.00870 1.86196 7076 ft 263 kts 351°
2026-04-30 20:27 41.04473 1.85475 6245 ft 262 kts 352°
2026-04-30 20:28 41.08014 1.84766 5623 ft 253 kts 352°
2026-04-30 20:28 41.11388 1.84090 5172 ft 239 kts 352°
2026-04-30 20:29 41.14614 1.83442 4702 ft 229 kts 352°
2026-04-30 20:30 41.19232 1.82534 3923 ft 219 kts 358°
2026-04-30 20:30 41.22243 1.86166 3301 ft 209 kts 63°
2026-04-30 20:31 41.23929 1.91026 2673 ft 176 kts 64°
2026-04-30 20:32 41.25384 1.95253 1987 ft 164 kts 64°
2026-04-30 20:32 41.26256 1.97789 1578 ft 144 kts 64°
2026-04-30 20:33 41.26668 1.98987 1381 ft 143 kts 64°
2026-04-30 20:33 41.27495 2.01408 1000 ft 142 kts 64°
2026-04-30 20:33 41.27918 2.02598 793 ft 143 kts 64°
2026-04-30 20:34 41.28717 2.04990 423 ft 142 kts 65°
2026-04-30 20:34 41.29538 2.07335 62 ft 139 kts 66°
2026-04-30 20:35 41.29895 2.08399 21 ft 100 kts 65°
2026-04-30 20:35 41.30093 2.08978 21 ft 39 kts 68°
2026-04-30 20:35 41.30123 2.09393 21 ft 9 kts 121°
2026-04-30 20:36 41.30088 2.09425 21 ft 5 kts 174°
2026-04-30 20:36 41.30057 2.09409 21 ft 5 kts 224°
2026-04-30 20:36 41.30006 2.09266 21 ft 11 kts 245°
2026-04-30 20:37 41.29966 2.09153 21 ft 15 kts 245°
2026-04-30 20:37 41.29917 2.09010 21 ft 18 kts 246°
2026-04-30 20:37 41.29861 2.08844 21 ft 21 kts 245°
2026-04-30 20:37 41.29794 2.08652 21 ft 23 kts 245°
2026-04-30 20:38 41.29746 2.08514 21 ft 10 kts 242°
2026-04-30 20:38 41.29686 2.08483 21 ft 10 kts 172°
2026-04-30 20:38 41.29627 2.08455 21 ft 9 kts 230°
2026-04-30 20:39 41.29552 2.08292 21 ft 11 kts 205°
2026-04-30 20:39 41.29475 2.08315 21 ft 12 kts 156°
2026-04-30 20:39 41.29401 2.08346 21 ft 10 kts 188°
2026-04-30 20:40 41.29314 2.08160 21 ft 13 kts 245°
2026-04-30 20:40 41.29276 2.08049 21 ft 8 kts 245°
2026-04-30 20:40 41.29253 2.07991 21 ft 5 kts 223°
2026-04-30 20:41 41.29193 2.08003 21 ft 5 kts 155°
2026-04-30 20:41 41.29177 2.08013 21 ft 0 kts 156°
2026-04-30 20:41 41.29176 2.08013 21 ft 0 kts 156°